DECAYED

OBJECT B, 57581 (Decayed)

Orbit data source: Space-Track

You're viewing an Uncataloged Satellite

Recently launched and/or uncataloged satellites may have evolving metadata. Metadata may include but not limited to: Owner, Maufacturer, Bus, Motor, and Mission.

OBJECT B, 57581 was a Chinese satellite in LEO that was launched on Thu, 10 Aug 2023 UTC via a GUSHENXING 1 launch vehicle from the Jiuquan Satellite Launch Center, China (JSC). Unknown objects in Earth's orbit typically refer to objects detected orbiting the Earth but have not yet been identified or cataloged. These objects could be anything from previously untracked satellites, spent rocket stages, debris from satellite collisions, or even natural meteoroids temporarily captured by Earth's gravity. This object's orbit decayed before it could be identified.

Not visible in the next 10 days
Identifier
57581, 2023-117B
Orbit
Decayed
Country
Flag of CNCN / PRC
Related business
None
Manufacturer
Unknown
Mission
Decayed Commercial Imaging
Bus & Motor
Unknown
Mass
Unknown
Launch date (UTC)
2023-08-10 (3 years ago)
Launch vehicle
GUSHENXING 1
Launch site
Jiuquan Satellite Launch Center, China (JSC)
Object type
Unknown
Shape & HBR
Box + 2 Pan, 0.5 m
Radar Cross Section
0.195 m², Medium (>0.1 m² and < 1m²)

Expand to show TLE details & history
Last TLE update: 1 year ago

TLE from 1 year ago
0 OBJECT B
1 57581U 23117B   25138.61283596  .14469295  25880-5  38301-3 0  9995
2 57581  97.4190 227.0637 0014340 263.0141  96.9529 16.44463851 99059
Epoch: 2025-05-18T14:42Z
TLE epoch observation values (Epoch: 2025-05-18T14:42:29.026Z)
Latitude
-0.00013°
Longitude
129.90548°
Altitude
158.359 km
Speed
7.81 km/s
True Right ascension
15h 08m 15s
True Declination
0° 00' 00"
Sunlit
Object was in full shadow at epoch
Visualization orbit readout
Latitude
Unknown
Longitude
Unknown
Altitude
Unknown
Speed
Unknown
Apparent Right ascension
Unknown
Apparent Declination
Unknown
Sunlit
N/A
Visualization observer readout
Local Sidereal Time
00:29:40
Azimuth
Unknown
Elevation
Unknown
Doppler factor
Unknown
Orbital elements
Apogee altitude
160.12 km
Perigee altitude
141.395 km
Semi-major axis
6,528.895 km
Eccentricity
0.00143
Inclination
97.419°
RAAN
227.0637°
Arg. of periapsis
263.0141°
True anomaly
97.11598°
Mean anomaly
96.9529°
Eccentric anomaly
97.03444°
Mean motion
4.11418 °/min
Orbital period
87.5 mins
BSTAR
0.00038301
Loading maneuver chart data...
Computing Atmospheric mass density...
Loading historical data...
Loading historical data...
Loading historical data...
Loading historical data...
Loading historical data...
Loading historical data...
Loading historical data...

Documentation

Showing up to 5 results
|